Time,TemperatureF,DewpointF,PressureIn,WindDirection,WindDirectionDegrees,WindSpeedMPH,WindSpeedGustMPH,Humidity,HourlyPrecipIn,Conditions,Clouds,dailyrainin,SolarRadiationWatts/m^2,SoftwareType,DateUTC
2013-05-12 00:00:00,38.0,30.0,-100.00,ESE,121,0.0,1.0,73,-99.99,,,0.00,0.000000,,2013-05-12 06:00:00,
2013-05-12 01:00:00,35.0,29.0,-100.00,SE,134,0.0,1.0,78,-99.99,,,0.00,0.000000,,2013-05-12 07:00:00,
2013-05-12 01:52:00,35.0,-99.9,-100.00,North,-999,-999.0,-999.0,-999,-99.99,,,0.00,,,2013-05-12 07:52:00,
2013-05-12 02:00:00,33.0,29.0,-100.00,SSE,148,0.0,1.0,84,-99.99,,,0.00,0.000000,,2013-05-12 08:00:00,
2013-05-12 03:00:00,32.0,28.0,-100.00,South,169,0.0,1.0,87,-99.99,,,0.00,0.000000,,2013-05-12 09:00:00,
2013-05-12 04:00:00,32.0,29.0,-100.00,SE,146,0.0,1.0,90,-99.99,,,0.00,0.000000,,2013-05-12 10:00:00,
2013-05-12 05:00:00,34.0,31.0,-100.00,South,174,1.0,2.0,86,-99.99,,,0.00,0.000000,,2013-05-12 11:00:00,
2013-05-12 06:00:00,32.0,29.0,-100.00,SE,145,0.0,2.0,87,-99.99,,,0.00,0.300000,,2013-05-12 12:00:00,
2013-05-12 07:00:00,33.0,31.0,-100.00,SE,124,0.0,1.0,91,-99.99,,,0.00,14.000000,,2013-05-12 13:00:00,
2013-05-12 08:00:00,41.0,37.0,-100.00,South,171,0.0,2.0,84,-99.99,,,0.00,29.000000,,2013-05-12 14:00:00,
2013-05-12 09:00:00,-999.0,-99.9,-100.00,West,269,1.0,2.0,60,-99.99,,,-99.99,330.899994,,2013-05-12 15:00:00,
2013-05-12 10:00:00,-999.0,-99.9,-100.00,NW,308,1.0,3.0,46,-99.99,,,-99.99,690.500000,,2013-05-12 16:00:00,
2013-05-12 11:00:00,57.0,32.0,-100.00,West,281,2.0,4.0,38,-99.99,,,0.00,825.700012,,2013-05-12 17:00:00,
2013-05-12 12:00:00,59.0,28.0,-100.00,WNW,289,2.0,5.0,31,-99.99,,,0.00,997.599976,,2013-05-12 18:00:00,
2013-05-12 13:00:00,62.0,27.0,-100.00,West,277,2.0,6.0,26,-99.99,,,0.00,964.599976,,2013-05-12 19:00:00,
2013-05-12 14:00:00,60.0,25.0,-100.00,NW,325,1.0,5.0,26,-99.99,,,0.00,399.600006,,2013-05-12 20:00:00,
2013-05-12 15:00:00,57.0,32.0,-100.00,ENE,70,2.0,9.0,39,-99.99,,,0.00,376.700012,,2013-05-12 21:00:00,
2013-05-12 16:00:00,57.0,30.0,-100.00,East,87,1.0,6.0,35,-99.99,,,0.00,285.100006,,2013-05-12 22:00:00,
2013-05-12 17:00:00,58.0,26.0,-100.00,South,184,1.0,5.0,29,-99.99,,,0.00,129.699997,,2013-05-12 23:00:00,
2013-05-12 18:00:00,58.0,26.0,-100.00,WNW,294,1.0,4.0,29,-99.99,,,-99.99,128.800003,,2013-05-13 00:00:00,
2013-05-12 19:00:00,55.0,28.0,-100.00,ENE,70,1.0,6.0,35,-99.99,,,0.00,82.699997,,2013-05-13 01:00:00,
2013-05-12 20:00:00,51.0,27.0,-100.00,ESE,106,0.0,4.0,38,-99.99,,,0.00,22.900000,,2013-05-13 02:00:00,
2013-05-12 21:00:00,45.0,-99.9,-100.00,North,-999,-999.0,-999.0,-999,-99.99,,,0.00,,,2013-05-13 03:00:00,
2013-05-12 22:00:00,41.0,29.0,-100.00,SSE,149,0.0,1.0,62,-99.99,,,0.00,0.000000,,2013-05-13 04:00:00,
2013-05-12 23:00:00,38.0,28.0,-100.00,SSW,202,0.0,0.0,67,-99.99,,,-99.99,0.000000,,2013-05-13 05:00:00,